Showing default

NVS-02, 62850

Orbit data source: Space-Track

NVS-02, 62850 is a payload satellite owned by ISRO (IN) in HEO that was launched on Wed, 29 Jan 2025 UTC via a GSLV MK II launch vehicle from the Sirharikota (SRI). Payload-class satellites include a variety of spacecraft equipped with specific instruments for various scientific and technological missions. These include communications satellites like Starlink; space stations such as the ISS; scientific satellites like the Hubble; Earth observation satellites from companies like Planet Labs, Umbra, and HawkEye 360; GPS; miniature CubeSats for education and research; and military/defense satellites.

Not visible in the next 10 days
Identifier
62850, 2025-020A
Orbit
HEO
Country
Flag of ININ / IND
Related business
Manufacturer
ISRO
Mission
Partially operational Civil Navigation
Bus & Motor
I2K, ISRO LAM
Mass
2,232 kg wet, ~1,000 kg dry
Launch date (UTC)
2025-01-29 (1 year ago)
Launch vehicle
GSLV MK II
Launch site
Sirharikota (SRI)
Object type
Payload
Rocket body
Debris
Shape & HBR
Box + 2 Pan, 3.0 m
Radar Cross Section
8.526 m², Large (>1 m²)

Expand to show TLE details & history
Last TLE update: 10 hours ago

TLE from 10 hours ago
0 NVS-02
1 62850U 25020A   26119.77737867  .00000696  00000-0  77507-3 0  9991
2 62850  20.7873 276.9376 7349026 117.1524 333.0321  2.17886319  9922
Epoch: 2026-04-29T18:39Z
TLE epoch observation values (Epoch: 2026-04-29T18:39:25.517Z)
Latitude
Longitude
139.17608°
Altitude
10,993.185 km
Speed
5.48 km/s
True Right ascension
18h 27m 03s
True Declination
0° 00' 00"
Sunlit
Object was in daylight at epoch
Visualization orbit readout
Latitude
Unknown
Longitude
Unknown
Altitude
Unknown
Speed
Unknown
Apparent Right ascension
Unknown
Apparent Declination
Unknown
Sunlit
N/A
Visualization observer readout
Local Sidereal Time
12:17:36
Azimuth
Unknown
Elevation
Unknown
Doppler factor
Unknown
Orbital elements
Apogee altitude
37,233.525 km
Perigee altitude
285.833 km
Semi-major axis
25,137.816 km
Eccentricity
0.7349
Inclination
20.7873°
RAAN
276.9376°
Arg. of periapsis
117.1524°
True anomaly
242.88129°
Mean anomaly
333.0321°
Eccentric anomaly
294.81226°
Mean motion
0.54457 °/min
Orbital period
661.07 mins
BSTAR
0.00077507
Loading maneuver chart data...
Computing Atmospheric mass density...
Loading historical data...
Loading historical data...
Loading historical data...
Loading historical data...
Loading historical data...
Loading historical data...
Loading historical data...
Other satellites on launch #20 in the year 2025 (2025-01-29 UTC)

Documentation

Showing up to 5 results
|